Regional Weather Roundup
Issued by NWS Pendleton, OR

Home | Current Version | Previous Version | Text Only | Print | Product List | Glossary On
Versions: 1 2 3 4 5 6 7 8 9 10 11 12 13 14 15 16 17 18 19 20 21 22 23 24 25 26 27 28 29 30 31 32 33 34 35 36 37 38 39 40 41 42 43 44 45 46 47 48 49 50
891
ASUS46 KPDT 260825
RWRPDT
PENDLETON REGIONAL WEATHER ROUNDUP
NATIONAL WEATHER SERVICE PENDLETON OREGON
100 AM PDT TUE JUL 26 2016

NOTE: FAIR INDICATES FEW OR NO CLOUDS BELOW 12,000 FEET WITH NO
SIGNIFICANT WEATHER AND/OR OBSTRUCTIONS TO VISIBILITY.

# INDICATES UNOFFICIAL STATION AND DATA

WAZ520-260910-
EAST SLOPES OF WASHINGTON CASCADES

CITY            SKY/WX      TMP DP  RH  WIND    PRES   REMARKS
#CLE ELUM HS    N/A         68  53  59  W6      29.99S
#CLE ELUM 2NW   N/A         67  51  56  W2      N/A
#GLENWOOD       N/A         62  57  84  CALM    29.93R
#MANASTASH CYN  N/A         66  45  47  CALM    30.02R
#NELSON 3SW     N/A         67  49  52  CALM    30.11S
#NILE           N/A         65  54  68  CALM    29.25R
#RONALD 2NW     N/A         66  N/A N/A NE1     30.13F
#TEANAWAY 4NE   N/A         64  55  73  CALM    N/A
#TROUT LAKE 1NE N/A         69  56  63  W3      29.93S
#TROUT LAKE 1E  N/A         69  58  68  CALM    30.00S
$$

WAZ521-260910-
SIMCOE HIGHLANDS

CITY            SKY/WX      TMP DP  RH  WIND    PRES   REMARKS
#CENTERVILLE 1SWN/A         69  58  68  CALM    29.87R
#GOLDENDALE 1NE N/A         70  48  46  SW1     N/A
#GOLDENDALE 4W  N/A         71  64  79  W14     30.04R
#LYLE 6NE       N/A         69  60  73  S7      29.91S
$$

WAZ026-260910-
KITTITAS VALLEY

CITY            SKY/WX      TMP DP  RH  WIND    PRES   REMARKS
ELLENSBURG AP   PTCLDY      72  52  49  NW17G26 29.99S
#ELLENSBURG CWU N/A         71  52  51  NW15    29.85S
#ELLENSBURG 3NE N/A         70  55  59  N7      29.99R
#ELLENSBURG     N/A         74  54  50  NW7     N/A
#ELLENSBURG 1E  N/A         71  N/A N/A NW1     N/A
#KITTITAS 4N    N/A         68  53  59  NW7     30.02R
#KITTITAS 3S    N/A         67  56  68  CALM    29.88S
#THORP 6N       N/A         68  53  59  NW14G30 29.92S
$$

WAZ027-260910-
YAKIMA VALLEY

CITY            SKY/WX      TMP DP  RH  WIND    PRES   REMARKS
SUNNYSIDE AP    CLEAR       67  58  73  NE3     29.90R
YAKIMA AIRPORT  PTCLDY      78  52  40  NW12    29.96R
YAKIMA-VAGABOND N/A         73  50  44  E10     29.95S
#DONALD 2NE     N/A         78  14   9  W3      29.91R
#GRANDVIEW      N/A         74  57  55  CALM    29.88R
#MABTON         N/A         77  60  56  SW7     29.90R
#NACHES 2SW     N/A         72  54  53  W13     29.98S
#TERRACE HTS    N/A         74  51  44  NW1     29.85S
#WEST VALLEY    N/A         76  54  46  CALM    29.87R
#W YAKIMA       N/A         75  53  46  N3      29.88R
#WHITE SWAN 5E  N/A         71  59  66  SE1     29.88S
#WILEY CITY 3W  N/A         66  51  58  CALM    29.94R
$$

WAZ028-260910-
LOWER COLUMBIA BASIN...WASHINGTON

CITY            SKY/WX      TMP DP  RH  WIND    PRES   REMARKS
HANFORD         MOCLEAR     82  50  33  NW21G30 29.87S
PASCO           CLEAR       79  55  44  SE7     29.88R
PROSSER AWOS    N/A         75  59  58  W5      29.94R
RICHLAND AWOS   CLEAR       76  59  56  SW7     29.88R
#BENTON CITY    N/A         79  56  45  SE2     29.76R
#CONNELL 5N     N/A         71  57  61  NW1     29.84S
#CONNELL 5NW    N/A         69  60  73  CALM    29.81R
#ELTOPIA 6NW    N/A         73  58  59  CALM    28.87S
#KAHLOTUS       N/A         76  44  32  S1      29.84R
#KENNEWICK 3S   N/A         78  59  52  N2      29.86R
#PATERSON       N/A         77  62  60  W2      29.85R
#SAGEMOOR 2W    N/A         77  56  48  W8      29.69S
#TOUCHET 2S     N/A         76  61  60  SW15    29.85R
#WEST PASCO     N/A         79  55  44  CALM    29.85R
$$

WAZ029-260910-
FOOTHILLS OF THE BLUES...WASHINGTON

CITY            SKY/WX      TMP DP  RH  WIND    PRES   REMARKS
WALLA WALLA AP  CLEAR       74  48  40  S7      29.94R
#CLYDE 6NW      N/A         68  46  45  CALM    29.85R
#DAYTON SCHOOL  N/A         71  45  39  N5      29.96R
#LOWDEN 2SE     N/A         70  59  68  W2      29.87R
#PLEASANT VIEW 1N/A         77  44  31  SW3     29.86R
#PRESCOTT       N/A         63  52  67  CALM    29.85R
#WHITMAN COLLEGEN/A         75  52  45  S3      29.92R
#WAITSBURG 5S   N/A         72  46  39  CALM    29.95R
#WAITSBURG 8N   N/A         61  15  16  CALM    29.92R
#WALLA WALLA U  N/A         76  52  43  CALM    29.86R
#WHITMAN MISSIONN/A         69  55  61  CALM    29.90R
$$

WAZ030-260910-
BLUE MOUNTAINS...WASHINGTON

CITY            SKY/WX      TMP DP  RH  WIND    PRES   REMARKS
#DIXIE 5SE      N/A         78  45  31  E1      29.97S
$$

ORZ009-041-WAZ024-260910-
COLUMBIA RIVER GORGE

CITY            SKY/WX      TMP DP  RH  WIND    PRES   REMARKS
HOOD RIVER AP   CLEAR       70  59  68  NW7     30.02R
THE DALLES AP   PTCLDY      77  58  52  NW13    29.95R
#ARLINGTON AIRPON/A         75  61  62  W8      29.91R
#ARLINGTON HS   N/A         98  46  17  W6      29.72  HX 94
#LYLE           N/A         74  62  66  W9      29.97R
#MARYHILL 2W    N/A         74  61  64  W6      N/A
#MOSIER 1S      N/A         71  48  44  NW8     30.00S
#MURDOCK        N/A         76  60  58  NW17G26 29.91R
#RUFUS DOT      N/A         79  60  52  W23     N/A
#SMITHVILLE     N/A         75  60  60  NW17    29.94R

$$

ORZ510-260910-
NORTH CENTRAL OREGON

CITY            SKY/WX      TMP DP  RH  WIND    PRES   REMARKS
#ANTELOPE       N/A         61  47  60  NE1     29.78R
#CHENOWITH 1W   N/A         67  58  73  NW29    N/A
#COW CYN RST AREN/A         68  N/A N/A W2      N/A
#DUFUR 9E       N/A         69  57  66  W14     29.96S
#GRASS VALLEY 1SN/A         63  53  70  SW2     30.00R
#KENT DOT       N/A         65  49  56  N10     N/A
#SHANIKO 5WSW   N/A         66  46  48  N12     N/A
#SHANIKO 4NW    N/A         66  58  75  W9      30.11S
#TYGH VALLEY 2NEN/A         68  55  63  CALM    29.93R
#WAPANITIA AIRPON/A         69  56  63  W8      29.94R
#WASCO DOT      N/A         74  59  59  W13     N/A
#WASCO AIRPORT  N/A         72  56  57  W17     N/A
#WASCO 5NE      N/A         72  59  64  W15     29.88S
$$

ORZ511-260910-
CENTRAL OREGON

CITY            SKY/WX      TMP DP  RH  WIND    PRES   REMARKS
BEND AIRPORT    CLEAR       61  52  72  CALM    30.13R
MADRAS AIRPORT  CLEAR       72  57  59  N6      30.10R
PRINEVILLE AP   CLEAR       61  52  72  SW5     30.12R
REDMOND AIRPORT CLEAR       60  47  62  CALM    30.11R
#ASHWOOD SCHOOL N/A         65  48  54  CALM    30.04R
#BEND 1SW       N/A         61  52  72  N1      N/A
#BEND-AWBREY    N/A         65  55  70  SW6     30.03S
#CULVER         N/A         66  54  65  E1      29.88R
#CULVER 8W      N/A         64  53  67  CALM    30.09R
#MADRAS 4S      N/A         64  31  29  CALM    30.15R
#POWELL BUTTE 3EN/A         65  51  60  SW2     N/A
#POWELL BUTTE   N/A         64  50  60  CALM    30.05R
#PRINEVILLE 3N  N/A         64  54  70  CALM    30.00R
#WARM SPRINGS   N/A         73  58  59  CALM    30.01S

$$


ORZ509-260910-
EAST SLOPES OF OREGON CASCADES

CITY            SKY/WX      TMP DP  RH  WIND    PRES   REMARKS
SISTERS AWOS    N/A         66  54  65  SW6     30.08R
#CAMP SHERMAN   N/A         64  52  65  CALM    29.98F
#LA PINE DOT    N/A         60  53  78  SW3     N/A
#LA PINE 4NW    N/A         53  48  83  CALM    29.98R
#LAVA BUTTE DOT N/A         60  53  78  SE1     N/A
#SISTERS AIRPOR N/A         66  60  81  N3      30.17S
#SISTERS ODOT   N/A         64  N/A N/A E1      N/A
#SISTERS 3N     N/A         66  53  63  N3      30.08S
#SUNRIVER       N/A         58  51  77  CALM    29.95R
#SUTTLE LK DOT  N/A         58  53  83  NW3     N/A
#TUMALO 3W      N/A         62  53  72  CALM    29.80R
#WANOGA BUTTE D N/A         63  45  52  CALM    N/A

$$

ORZ044-260910-
LOWER COLUMBIA BASIN...OREGON

CITY            SKY/WX      TMP DP  RH  WIND    PRES   REMARKS
HERMISTON       CLEAR       78  59  52  SW13    29.90R
#BOARDMAN 8SW   N/A         75  62  64  SW12    29.88R
#ECHO 8SW       N/A         77  57  50  SW14    29.92R
#I-84 EX 198 DOTN/A         77  60  56  E15     N/A
#UMATILLA       N/A         77  59  54  SW1     29.81R
$$

ORZ507-260910-
NORTHERN FOOTHILLS OF THE BLUES

CITY            SKY/WX      TMP DP  RH  WIND    PRES   REMARKS
PENDLETON AIRPT CLEAR       71  46  41  SE5     29.97R
#ADAMS 3WNW     N/A         67  52  59  CALM    29.89R
#ATHENA         N/A         65  49  56  CALM    29.92R
#CAYUSE         N/A         72  51  48  E1      29.88R
#HELIX SCHOOL   N/A         69  52  55  CALM    29.89R
#HELIX 3N       N/A         69  53  57  S2      29.96R
#HELIX 6SW      N/A         71  55  57  CALM    29.96R
#HOLDMAN 5SE    N/A         74  59  59  SW2     29.96R
#HOLDMAN 6E     N/A         73  57  57  N7      29.70R
#M-F GROVE ELEM N/A         74  47  38  CALM    29.93R
#M-FREEWATER 5SEN/A         70  52  53  CALM    29.96R
#PENDLETON DNTN N/A         69  42  37  E1      29.98R
#PDT AQUATIC CTRN/A         70  40  34  CALM    29.80S
#PDT SUNRIDGE   N/A         68  47  47  CALM    29.97R
#PENDLETON 7NW  N/A         76  59  56  CALM    31.91S
#PILOT ROCK 1S  N/A         73  48  41  SE2     29.99R
#PILOT ROCK     N/A         72  49  44  E1      30.01R
#TUTUILLA       N/A         67  49  52  CALM    29.93R
#UMAPINE 2E     N/A         75  60  60  SW2     29.89R
#WESTON SCHOOL  N/A         71  47  42  NW2     29.83R

$$

ORZ508-260910-
SOUTHERN FOOTHILLS OF THE BLUES

CITY            SKY/WX      TMP DP  RH  WIND    PRES   REMARKS
LEXINGTON       CLEAR       72  54  53  S7      30.03R
#AJAX           N/A         72  49  44  S8      27.78R
#CONDON 5W      N/A         66  51  58  W12     30.06R
#HEPPNER EOC    N/A         71  53  53  SW3     29.84R
#HEPPNER 4NE    N/A         69  54  59  SW3     29.89R
#LEXINGTON 2SE  N/A         70  54  57  CALM    29.96R
#RUGGS 5NE      N/A         66  50  56  SW2     30.23R
#RUGGS 2SW      N/A         69  53  57  SW5     29.91S

$$

ORZ502-503-260910-
BLUE MOUNTAINS

CITY            SKY/WX      TMP DP  RH  WIND    PRES   REMARKS
MEACHAM         CLEAR       53  45  74  CALM    30.11S
#BATTLE MTN DOT N/A         63  49  60  CALM    N/A
#CUTSFORTH PARK N/A         53  46  77  CALM    29.91S
#GREENHORN 9SW  N/A         57  44  62  CALM    30.09R
#HARDMAN 10S    N/A         65  49  56  CALM    29.98F
#HEPPNER 15SE   N/A         59  50  72  CALM    25.64F
#LADD CYN SMT   N/A         73  44  35  W6      N/A
#LADD CREEK ODOTN/A         74  45  35  NE1     N/A
#LONG CREEK HS  N/A         63  44  50  CALM    N/A
#N POWDER DOT   N/A         67  45  45  CALM    N/A
#PIKES PEAK     N/A         75  43  32  SW12    27.99S
#TOLLGATE       N/A         60  44  55  CALM    30.01S
#TROY SCHOOL    N/A         66  55  68  CALM    29.73R
#UKIAH          N/A         55  46  72  CALM    29.85R
#WESTON 4E      N/A         68  50  53  CALM    29.83S
$$

ORZ505-260910-
JOHN DAY BASIN

CITY            SKY/WX      TMP DP  RH  WIND    PRES   REMARKS
JOHN DAY        CLEAR       73  41  31  CALM    30.09R
#DAYVILLE SCHOOLN/A         77  44  31  CALM    29.99S
#MITCHELL       N/A         65  52  63  CALM    30.24S
#MITCHELL 8NW   N/A         69  47  45  E2      30.07S
#MONUMENT HS    N/A         69  43  39  CALM    29.87R
#MT. VERNON 5SE N/A         69  42  37  CALM    30.06R
#SPRAY SCHOOL   N/A         72  N/A N/A CALM    N/A
$$

ORZ506-260910-
OCHOCO AND JOHN DAY HIGHLANDS

CITY            SKY/WX      TMP DP  RH  WIND    PRES   REMARKS
#BUCK CREEK DOT N/A         70  52  53  NW6     N/A
#HORSE RIDGE DO N/A         59  51  75  CALM    N/A
#KEYES SMT DOT  N/A         65  44  46  N8      N/A
#PAULINA SCHOOL N/A         71  49  46  W8      N/A
#PINE MTN OBS   N/A         57  47  69  N1      N/A
#PRAIRIE CITY   N/A         60  46  60  CALM    30.24R
#SENECA         N/A         62  N/A N/A CALM    N/A
#SENECA 9NW     N/A         60  40  47  CALM    29.85S
$$

ORZ049-260910-
GRANDE RONDE VALLEY

CITY            SKY/WX      TMP DP  RH  WIND    PRES   REMARKS
LA GRANDE       CLEAR       68  39  35  N10     30.02R
#COVE           N/A         64  52  65  NW1     30.06R
#COVE SCHOOL    N/A         65  50  58  CALM    30.04R
#COVE 6NW       N/A         62  48  60  CALM    29.90R
#ELGIN 3N       N/A         61  44  53  CALM    30.00S
#ELGIN 1E       N/A         64  49  58  CALM    N/A
#IMBLER SCHOOL  N/A         72  47  41  N2      29.97R
#ISLAND CITY 4N N/A         61  53  75  CALM    30.09R
#LADD CYN DOT   N/A         76  49  39  NE6     N/A
#UNION 1S       N/A         65  50  58  CALM    29.78R
$$

ORZ050-260910-
WALLOWA COUNTY

CITY            SKY/WX      TMP DP  RH  WIND    PRES   REMARKS
JOSEPH AIRPORT  CLEAR       63  45  52  CALM    N/A
#ENTERPRISE AP  N/A         49  29  46  CALM    30.02R
#ENTERPRISE HS  N/A         60  51  72  CALM    30.08R
#IMNAHA SCHOOL  N/A         72  51  48  SW5     29.97R
#IMNAHA 10S     N/A         67  48  50  SW3     30.02R
#JOSEPH 3N      N/A         55  47  74  NE1     30.10S
#JOSEPH 3W      N/A         66  47  50  SW3     29.97R
#LOSTINE        N/A         61  50  67  CALM    29.69R
#LOSTINE 3SE    N/A         61  49  65  CALM    30.05R
#MT HOWARD 8000 N/A         61  38  42  CALM    30.37S
#PROMISE 1S     N/A         64  47  54  CALM    29.96S
#WALLOWA SCHOOL N/A         60  53  78  CALM    30.01R



$$



USA.gov is the U.S. government's official web portal to all federal, state and local government web resources and services.